Regional Weather Roundup
Issued by NWS State College, PA

Home | Current Version | Previous Version | Text Only | Print | Product List | Glossary On
Versions: 1 2 3 4 5 6 7 8 9 10 11 12 13 14 15 16 17 18 19 20 21 22 23 24 25 26 27 28 29 30 31 32 33 34 35 36 37 38 39 40 41 42 43 44 45 46 47 48 49 50
000
ASUS41 KCTP 050403
RWRCTP

REGIONAL WEATHER ROUNDUP
NATIONAL WEATHER SERVICE STATE COLLEGE PA
1200 AM EDT TUE MAY 05 2015

Note: "fair" indicates few or no clouds below 12,000 feet with no
significant weather and/or obstructions to visibility.

* = STATION THAT DOES NOT REPORT PRECIPITATION /E.G. RAIN...SNOW...ETC/
    THUNDER OR FOG.

PAZ002>004-007>009-013>016-020>023-029>032-050500-
WESTERN PENNSYLVANIA

CITY           SKY/WX    TMP DP  RH WIND       PRES   REMARKS
ERIE           PTCLDY    56  53  90 CALM      30.20R
MEADVILLE      PTCLDY    59  56  89 SW5       30.21S FOG
FRANKLIN*      CLEAR     59  54  82 SW6       30.23S
NEW CASTLE     FAIR      60  60 100 CALM      30.22F
BEAVER COUNTY  NOT AVBL
BUTLER*        CLOUDY    61  57  88 CALM      30.24S
PITTSBURGH INT CLOUDY    64  60  87 CALM      30.22S
PITTSBURGH     CLOUDY    64  56  75 SW5       30.22S
INDIANA*       CLOUDY    66  57  72 CALM      30.27S
LATROBE        CLOUDY    64  57  77 CALM      30.25S
WASHINGTON CO* CLOUDY    63  55  77 CALM      30.26R
$$

PAZ004>006-010>012-017>019-024>028-033>037-041-042-045-046-049>053-050500-
CENTRAL PENNSYLVANIA

CITY           SKY/WX    TMP DP  RH WIND       PRES   REMARKS
BRADFORD       CLOUDY    59  56  89 W3        30.22F
DUBOIS         CLOUDY    63  56  78 W5        30.22S
CLEARFIELD     CLOUDY    66  54  65 W5        30.22R
JOHNSTOWN      CLOUDY    65  51  60 NW9       30.25R
ALTOONA        CLOUDY    69  51  52 NW12      30.22R
STATE COLLEGE  CLOUDY    71  52  51 NW8G16    30.20R
WILLIAMSPORT   CLOUDY    66  49  54 CALM      30.12S
SELINSGROVE    MOCLDY    65  54  67 SW3       30.14S
FT INDIANTOWN  CLEAR     61  50  65 CALM      30.17R
CAPITAL CITY   PTCLDY    68  50  52 E3        30.16R
HARRISBURG     PTCLDY    67  54  63 CALM      30.15S
YORK           PTCLDY    69  50  50 S8        30.16S
$$

PAZ038>040-043-044-047-048-054-055-060>062-067>071-050500-
EASTERN PENNSYLVANIA

CITY           SKY/WX    TMP DP  RH WIND       PRES   REMARKS
SCRANTON       PTCLDY    72  45  37 S6        30.14S
MOUNT POCONO   PTCLDY    65  44  46 SW12      30.19S
ALLENTOWN      CLEAR     64  48  56 SW5       30.17R
QUAKERTOWN*    CLEAR     66  48  52 SW6       30.19S
READING        FAIR      69  49  48 S5        30.16R
LANCASTER      CLEAR     67  50  54 CALM      30.17S
COATESVILLE    CLEAR     66  52  59 S3        30.20S
POTTSTOWN      CLEAR     69  49  48 CALM      30.19S
BLUE BELL      CLEAR     70  50  49 SW7       30.18S
DOYLESTOWN     CLEAR     68  48  48 SW7       30.17S
WILLOW GROVE   NOT AVBL
NORTH PHILA    CLEAR     71  45  39 SW8       30.20S
PHILADELPHIA   PTCLDY    70  49  47 S7        30.20R
$$



USA.gov is the U.S. government's official web portal to all federal, state and local government web resources and services.